| time (UTC) | temp F | wind direction | speed MPH | gust MPH | rain 1hr in | rain 24hr in | rain mn in | humidity % | barometer mb |
| 20260905094602 | 75 | 0 | 0.0 | 1.0 | 0.00 | 0.00 | 0.00 | 91 | 1012.9 |
| 20260905093103 | 75 | 217 | 0.0 | 1.0 | 0.00 | 0.00 | 0.00 | 91 | 1013.1 |
| 20260905091609 | 76 | 0 | 0.0 | 0.0 | 0.00 | 0.00 | 0.00 | 91 | 1013.2 |
| 20260905090137 | 76 | 0 | 0.0 | 0.0 | 0.00 | 0.00 | 0.00 | 91 | 1013.2 |
| 20260905084606 | 76 | 0 | 0.0 | 0.0 | 0.00 | 0.00 | 0.00 | 91 | 1013.3 |
| 20260905083100 | 76 | 0 | 0.0 | 1.0 | 0.00 | 0.00 | 0.00 | 91 | 1013.3 |
| 20260905081609 | 76 | 0 | 1.0 | 1.0 | 0.00 | 0.00 | 0.00 | 91 | 1013.1 |
| 20260905080101 | 76 | 0 | 0.0 | 0.0 | 0.00 | 0.00 | 0.00 | 91 | 1013.1 |
| 20260905074608 | 77 | 0 | 0.0 | 0.0 | 0.00 | 0.00 | 0.00 | 90 | 1013.1 |
| 20260905073106 | 77 | 0 | 0.0 | 0.0 | 0.00 | 0.00 | 0.00 | 90 | 1012.9 |
| 20260905071555 | 77 | 0 | 0.0 | 0.0 | 0.00 | 0.00 | 0.00 | 90 | 1013.0 |
| 20260905070105 | 77 | 0 | 0.0 | 0.0 | 0.00 | 0.00 | 0.00 | 89 | 1013.1 |
| 20260905064602 | 78 | 0 | 0.0 | 0.0 | 0.00 | 0.00 | 0.00 | 89 | 1013.2 |
| 20260905063058 | 78 | 0 | 0.0 | 0.0 | 0.00 | 0.00 | 0.00 | 89 | 1013.3 |
| 20260905061605 | 78 | 0 | 0.0 | 0.0 | 0.00 | 0.00 | 0.00 | 88 | 1013.4 |
| 20260905060104 | 79 | 0 | 0.0 | 2.0 | 0.00 | 0.00 | 0.00 | 87 | 1013.5 |
| 20260905054605 | 79 | 212 | 1.0 | 3.0 | 0.00 | 0.00 | 0.00 | 86 | 1013.7 |
| 20260905053059 | 80 | 0 | 0.0 | 1.0 | 0.00 | 0.00 | 0.00 | 86 | 1013.9 |
| 20260905051556 | 80 | 0 | 0.0 | 3.0 | 0.00 | 0.00 | 0.00 | 85 | 1013.9 |
| 20260905050107 | 81 | 0 | 0.0 | 2.0 | 0.00 | 0.00 | 0.00 | 84 | 1013.8 |
| 20260905044603 | 81 | 237 | 1.0 | 4.0 | 0.00 | 0.00 | 0.00 | 84 | 1014.2 |
| 20260905043059 | 81 | 200 | 0.0 | 2.0 | 0.00 | 0.00 | 0.00 | 83 | 1014.3 |
| 20260905041557 | 82 | 0 | 0.0 | 2.0 | 0.00 | 0.00 | 0.00 | 83 | 1014.2 |
| 20260905040105 | 82 | 0 | 0.0 | 2.0 | 0.00 | 0.00 | 0.00 | 82 | 1014.3 |
| 20260905034601 | 82 | 214 | 0.0 | 3.0 | 0.00 | 0.00 | 0.00 | 81 | 1014.5 |
| 20260905033110 | 83 | 0 | 0.0 | 0.0 | 0.00 | 0.00 | 0.00 | 81 | 1014.5 |
| 20260905031622 | 83 | 0 | 0.0 | 3.0 | 0.00 | 0.00 | 0.00 | 80 | 1014.5 |
| 20260905030058 | 83 | 223 | 0.0 | 0.0 | 0.00 | 0.00 | 0.00 | 79 | 1014.5 |
| 20260905024602 | 83 | 239 | 0.0 | 2.0 | 0.00 | 0.00 | 0.00 | 79 | 1014.6 |
| 20260905023102 | 84 | 0 | 0.0 | 2.0 | 0.00 | 0.00 | 0.00 | 78 | 1014.6 |
| 20260905021602 | 84 | 0 | 0.0 | 0.0 | 0.00 | 0.00 | 0.00 | 78 | 1014.6 |
| 20260905020106 | 84 | 0 | 0.0 | 0.0 | 0.00 | 0.00 | 0.00 | 77 | 1014.4 |
| 20260905014557 | 84 | 0 | 0.0 | 1.0 | 0.00 | 0.00 | 0.00 | 76 | 1014.5 |
| 20260905013058 | 85 | 0 | 0.0 | 0.0 | 0.00 | 0.00 | 0.00 | 72 | 1014.4 |
| 20260905011556 | 85 | 0 | 0.0 | 2.0 | 0.00 | 0.00 | 0.00 | 71 | 1014.4 |
| 20260905010110 | 86 | 221 | 1.0 | 2.0 | 0.00 | 0.00 | 0.00 | 71 | 1014.2 |
| 20260905004604 | 86 | 0 | 0.0 | 0.0 | 0.00 | 0.00 | 0.00 | 67 | 1014.2 |
| 20260905003101 | 87 | 0 | 0.0 | 0.0 | 0.00 | 0.00 | 0.00 | 64 | 1013.9 |
| 20260905001558 | 88 | 0 | 0.0 | 0.0 | 0.00 | 0.00 | 0.00 | 62 | 1013.9 |
| 20260905000108 | 89 | 0 | 0.0 | 0.0 | 0.00 | 0.00 | 0.00 | 57 | 1014.0 |
| 20260904234601 | 90 | 0 | 0.0 | 0.0 | 0.00 | 0.00 | 0.00 | 54 | 1013.7 |
| 20260904233103 | 90 | 0 | 0.0 | 0.0 | 0.00 | 0.00 | 0.00 | 53 | 1013.5 |
| 20260904231559 | 91 | 0 | 0.0 | 0.0 | 0.00 | 0.00 | 0.00 | 51 | 1013.4 |
| 20260904230113 | 92 | 0 | 0.0 | 0.0 | 0.00 | 0.00 | 0.00 | 48 | 1013.4 |
| 20260904224606 | 92 | 0 | 0.0 | 0.0 | 0.00 | 0.00 | 0.00 | 48 | 1013.5 |
| 20260904223106 | 92 | 0 | 0.0 | 0.0 | 0.00 | 0.00 | 0.00 | 48 | 1013.4 |
| 20260904221557 | 93 | 0 | 0.0 | 1.0 | 0.00 | 0.00 | 0.00 | 49 | 1013.4 |
| 20260904220122 | 93 | 0 | 0.0 | 0.0 | 0.00 | 0.00 | 0.00 | 49 | 1013.5 |
| 20260904214603 | 93 | 0 | 0.0 | 1.0 | 0.00 | 0.00 | 0.00 | 51 | 1013.3 |
| 20260904213104 | 92 | 233 | 0.0 | 3.0 | 0.00 | 0.00 | 0.00 | 54 | 1013.6 |
| 20260904211607 | 93 | 68 | 2.0 | 4.0 | 0.00 | 0.00 | 0.00 | 54 | 1013.7 |
| 20260904210104 | 93 | 70 | 0.0 | 4.0 | 0.00 | 0.00 | 0.00 | 51 | 1013.6 |
| 20260904204603 | 92 | 0 | 0.0 | 5.0 | 0.00 | 0.00 | 0.00 | 54 | 1014.0 |
| 20260904203104 | 92 | 65 | 1.0 | 4.0 | 0.00 | 0.00 | 0.00 | 52 | 1014.1 |
| 20260904201600 | 92 | 0 | 0.0 | 4.0 | 0.00 | 0.00 | 0.00 | 57 | 1014.4 |
| 20260904200113 | 91 | 0 | 1.0 | 3.0 | 0.00 | 0.00 | 0.00 | 54 | 1014.5 |
| 20260904194611 | 91 | 0 | 0.0 | 0.0 | 0.00 | 0.00 | 0.00 | 60 | 1014.7 |
| 20260904193106 | 91 | 0 | 0.0 | 3.0 | 0.00 | 0.00 | 0.00 | 59 | 1015.0 |
| 20260904191603 | 90 | 0 | 1.0 | 6.0 | 0.00 | 0.00 | 0.00 | 61 | 1015.3 |
| 20260904190106 | 90 | 44 | 4.0 | 6.0 | 0.00 | 0.00 | 0.00 | 64 | 1015.5 |
| 20260904184614 | 89 | 48 | 4.0 | 6.0 | 0.00 | 0.00 | 0.00 | 63 | 1015.8 |
| 20260904183104 | 89 | 50 | 3.0 | 5.0 | 0.00 | 0.00 | 0.00 | 68 | 1015.7 |
| 20260904181601 | 88 | 0 | 0.0 | 3.0 | 0.00 | 0.00 | 0.00 | 64 | 1016.1 |
| 20260904180117 | 87 | 46 | 3.0 | 4.0 | 0.00 | 0.00 | 0.00 | 64 | 1016.1 |
| 20260904174623 | 87 | 52 | 3.0 | 4.0 | 0.00 | 0.00 | 0.00 | 65 | 1016.3 |
| 20260904173110 | 87 | 52 | 4.0 | 5.0 | 0.00 | 0.00 | 0.00 | 64 | 1016.5 |
| 20260904171609 | 86 | 59 | 3.0 | 4.0 | 0.00 | 0.00 | 0.00 | 69 | 1016.5 |
| 20260904170106 | 85 | 46 | 3.0 | 5.0 | 0.00 | 0.00 | 0.00 | 70 | 1016.7 |
| 20260904164606 | 84 | 55 | 3.0 | 5.0 | 0.00 | 0.00 | 0.00 | 74 | 1016.9 |
| 20260904163103 | 84 | 61 | 3.0 | 4.0 | 0.00 | 0.00 | 0.00 | 79 | 1017.1 |
| 20260904161606 | 83 | 63 | 4.0 | 5.0 | 0.00 | 0.00 | 0.00 | 81 | 1017.3 |
| 20260904160110 | 83 | 62 | 4.0 | 4.0 | 0.00 | 0.00 | 0.00 | 81 | 1017.5 |
| 20260904154606 | 83 | 63 | 3.0 | 4.0 | 0.00 | 0.00 | 0.00 | 80 | 1017.6 |
| 20260904153129 | 82 | 65 | 2.0 | 4.0 | 0.00 | 0.00 | 0.00 | 79 | 1017.5 |
| 20260904151604 | 82 | 64 | 2.0 | 3.0 | 0.00 | 0.00 | 0.00 | 81 | 1017.7 |
| 20260904144604 | 81 | 98 | 1.0 | 3.0 | 0.00 | 0.00 | 0.00 | 84 | 1017.5 |
| 20260904143102 | 80 | 40 | 2.0 | 4.0 | 0.00 | 0.00 | 0.00 | 88 | 1017.4 |
| 20260904141602 | 80 | 64 | 3.0 | 4.0 | 0.00 | 0.00 | 0.00 | 89 | 1017.5 |
| 20260904140105 | 79 | 0 | 0.0 | 4.0 | 0.00 | 0.00 | 0.00 | 90 | 1017.5 |
| 20260904134610 | 79 | 0 | 0.0 | 3.0 | 0.00 | 0.00 | 0.00 | 90 | 1017.5 |
| 20260904133108 | 79 | 0 | 0.0 | 2.0 | 0.00 | 0.00 | 0.00 | 90 | 1017.5 |
| 20260904131603 | 79 | 0 | 0.0 | 2.0 | 0.00 | 0.00 | 0.00 | 90 | 1017.5 |
| 20260904130112 | 78 | 0 | 0.0 | 1.0 | 0.00 | 0.00 | 0.00 | 91 | 1017.5 |
| 20260904124605 | 78 | 0 | 0.0 | 3.0 | 0.00 | 0.00 | 0.00 | 91 | 1017.5 |
| 20260904123108 | 78 | 0 | 0.0 | 0.0 | 0.00 | 0.00 | 0.00 | 91 | 1017.5 |
| 20260904121604 | 77 | 0 | 0.0 | 0.0 | 0.00 | 0.00 | 0.00 | 91 | 1017.4 |
| 20260904120127 | 76 | 0 | 0.0 | 0.0 | 0.00 | 0.00 | 0.00 | 91 | 1017.4 |
| 20260904114619 | 76 | 0 | 0.0 | 0.0 | 0.00 | 0.00 | 0.00 | 90 | 1017.3 |
| 20260904113106 | 75 | 0 | 0.0 | 0.0 | 0.00 | 0.00 | 0.00 | 90 | 1017.2 |
| 20260904111605 | 75 | 0 | 0.0 | 0.0 | 0.00 | 0.00 | 0.00 | 90 | 1017.1 |
| 20260904110100 | 75 | 0 | 0.0 | 0.0 | 0.00 | 0.00 | 0.00 | 90 | 1017.0 |
| 20260904104556 | 75 | 0 | 0.0 | 0.0 | 0.00 | 0.00 | 0.00 | 90 | 1016.9 |
| 20260904103101 | 75 | 0 | 0.0 | 0.0 | 0.00 | 0.00 | 0.00 | 90 | 1016.7 |
| 20260904101608 | 75 | 0 | 0.0 | 0.0 | 0.00 | 0.00 | 0.00 | 91 | 1016.6 |
| 20260904100100 | 75 | 0 | 0.0 | 0.0 | 0.00 | 0.00 | 0.00 | 91 | 1016.4 |